This demonstration page uses our WeatherBlox Daily Observations layout. Learn more.

Hourly Observations for June 15, 2017

Temp ( °F °C ) Dew Point ( °F °C ) Humidity (%) Winds ( mph kmh ) Pressure ( in mb ) Visibility ( mi km ) Precip ( " mm )
12:15 am 00:15 Cloudy 79 26 70 21 74 74 SE 5 7 30 1016 10 16.09344 0 0
12:35 am 00:35 Partly Cloudy 77 25 70 21 79 79 SE 5 7 30 1016 10 16.09344 0 0
12:55 am 00:55 Mostly Cloudy 77 25 70 21 79 79 SE 5 7 30 1016 10 16.09344 0 0
1:15 am 01:15 Partly Cloudy 77 25 70 21 79 79 SSE 6 9 30 1016 10 16.09344 0 0
1:35 am 01:35 Clear 77 25 70 21 79 79 SE 3 6 30 1016 10 16.09344 0 0
1:55 am 01:55 Partly Cloudy 75 24 70 21 83 83 SE 5 7 30 1016 10 16.09344 0 0
2:15 am 02:15 Mostly Cloudy 77 25 72 22 83 83 SSE 8 13 30 1016 10 16.09344 0 0
2:35 am 02:35 Cloudy 75 24 72 22 89 89 SE 7 11 30 1016 10 16.09344 0 0
2:55 am 02:55 Cloudy 75 24 72 22 89 89 S 8 13 30 1016 10 16.09344 0 0
3:15 am 03:15 Mostly Cloudy 73 23 72 22 94 94 S 7 11 30 1016 10 16.09344 0 0
3:35 am 03:35 Cloudy 75 24 70 21 83 83 SSE 10 17 29.97 1015 10 16.09344 0 0
3:55 am 03:55 Cloudy 75 24 70 21 83 83 SSE 9 15 29.97 1015 10 16.09344 0 0
4:15 am 04:15 Cloudy 75 24 68 20 78 78 S 10 17 29.97 1015 10 16.09344 0 0
4:35 am 04:35 Cloudy 73 23 68 20 83 83 S 8 13 30 1016 10 16.09344 0 0
4:55 am 04:55 Cloudy 73 23 68 20 83 83 SSE 7 11 29.97 1015 10 16.09344 0 0
5:15 am 05:15 Cloudy 73 23 68 20 83 83 S 5 7 29.97 1015 10 16.09344 0 0
5:35 am 05:35 Mostly Cloudy 73 23 68 20 83 83 SSE 5 7 29.97 1015 10 16.09344 0 0
5:55 am 05:55 Mostly Cloudy 72 22 68 20 88 88 Calm 29.97 1015 N/A 0 0
6:15 am 06:15 Cloudy 73 23 68 20 83 83 Calm 30 1016 10 16.09344 0 0
6:35 am 06:35 Cloudy 73 23 68 20 83 83 Calm 30 1016 10 16.09344 0 0
6:55 am 06:55 Cloudy 73 23 68 20 83 83 Calm 30 1016 10 16.09344 0 0
7:15 am 07:15 Cloudy 73 23 68 20 83 83 Calm 30 1016 10 16.09344 0 0
7:35 am 07:35 Cloudy 73 23 68 20 83 83 Calm 30 1016 10 16.09344 0 0
7:55 am 07:55 Cloudy 73 23 68 20 83 83 S 5 7 30 1016 10 16.09344 0 0
8:15 am 08:15 Cloudy 73 23 68 20 83 83 ESE 6 9 30 1016 10 16.09344 0 0
8:35 am 08:35 Cloudy 75 24 68 20 78 78 SE 6 9 30 1016 10 16.09344 0 0
8:55 am 08:55 Mostly Cloudy 77 25 68 20 74 74 SE 6 9 30 1016 10 16.09344 0 0
9:15 am 09:15 Partly Cloudy 77 25 66 19 69 69 SE 7 11 30 1016 10 16.09344 0 0
9:35 am 09:35 Mostly Cloudy 77 25 66 19 69 69 SE 3 6 30 1016 10 16.09344 0 0
9:55 am 09:55 Partly Cloudy 79 26 66 19 65 65 ESE 5 7 30 1016 10 16.09344 0 0
10:15 am 10:15 Partly Cloudy 79 26 66 19 65 65 S 5 7 30 1016 10 16.09344 0 0
10:35 am 10:35 Mostly Cloudy 79 26 66 19 65 65 S 3 6 30 1016 10 16.09344 0 0
10:55 am 10:55 Mostly Cloudy 81 27 66 19 62 62 SSE 7 11 30 1016 10 16.09344 0 0
11:15 am 11:15 Mostly Cloudy 81 27 66 19 62 62 S 6 9 30 1016 10 16.09344 0 0
11:35 am 11:35 Cloudy 81 27 68 20 66 66 S 7 11 30 1016 10 16.09344 0 0
11:55 am 11:55 Cloudy 82 28 66 19 58 58 SSE 8 13 30 1016 10 16.09344 0 0
12:15 pm 12:15 Cloudy 82 28 66 19 58 58 SSW 9 15 30 1016 10 16.09344 0 0
12:35 pm 12:35 Mostly Cloudy 86 30 64 18 49 49 S 9 15 30 1016 10 16.09344 0 0
12:55 pm 12:55 Mostly Cloudy 84 29 64 18 51 51 SSW 8 13 30 1016 10 16.09344 0 0
1:15 pm 13:15 Cloudy 84 29 66 19 55 55 S 9 15 29.97 1015 10 16.09344 0 0
1:35 pm 13:35 Mostly Cloudy 86 30 66 19 52 52 S 8 13 29.94 1014 10 16.09344 0 0
1:55 pm 13:55 Cloudy 84 29 64 18 51 51 S 8 13 29.97 1015 10 16.09344 0 0
2:15 pm 14:15 Cloudy 84 29 66 19 55 55 S 6 9 29.97 1015 10 16.09344 0 0
2:35 pm 14:35 Cloudy 84 29 66 19 55 55 SE 14 22 29.97 1015 10 16.09344 0 0
2:55 pm 14:55 Partly Cloudy 86 30 66 19 52 52 SE 13 20 29.94 1014 10 16.09344 0 0
3:15 pm 15:15 Mostly Cloudy 84 29 66 19 55 55 S 7 11 29.94 1014 10 16.09344 0 0
3:35 pm 15:35 Cloudy 86 30 66 19 52 52 SSE 15 24 29.91 1013 10 16.09344 0 0
3:55 pm 15:55 Cloudy 86 30 66 19 52 52 SSE 10 17 29.91 1013 10 16.09344 0 0
4:15 pm 16:15 Mostly Cloudy 88 31 64 18 46 46 S 9 15 29.91 1013 10 16.09344 0 0
4:35 pm 16:35 Mostly Cloudy 88 31 66 19 49 49 S 12 19 29.88 1012 10 16.09344 0 0
4:55 pm 16:55 Mostly Cloudy 88 31 64 18 46 46 SSE 9 15 29.88 1012 10 16.09344 0 0
5:15 pm 17:15 Mostly Cloudy 86 30 64 18 49 49 S 10 17 29.88 1012 10 16.09344 0 0
5:35 pm 17:35 Partly Cloudy 86 30 64 18 49 49 SSE 13 20 29.88 1012 10 16.09344 0 0
5:55 pm 17:55 Sunny 86 30 64 18 49 49 S 10 17 29.88 1012 10 16.09344 0 0
6:15 pm 18:15 Partly Cloudy 86 30 64 18 49 49 SSE 9 15 29.88 1012 10 16.09344 0 0
6:35 pm 18:35 Mostly Cloudy 86 30 66 19 52 52 SE 13 20 29.88 1012 10 16.09344 0 0
6:55 pm 18:55 Mostly Cloudy 84 29 68 20 58 58 SSE 8 13 29.91 1013 10 16.09344 0 0
7:15 pm 19:15 Partly Cloudy 82 28 68 20 62 62 SSE 15 24 29.91 1013 10 16.09344 0 0
7:35 pm 19:35 Sunny 82 28 68 20 62 62 SSE 10 17 29.91 1013 10 16.09344 0 0
7:55 pm 19:55 Sunny 82 28 68 20 62 62 SE 12 19 29.91 1013 10 16.09344 0 0
8:15 pm 20:15 Sunny 81 27 68 20 66 66 SSE 13 20 29.91 1013 10 16.09344 0 0
8:35 pm 20:35 Sunny 81 27 68 20 66 66 SE 12 19 29.91 1013 10 16.09344 0 0
8:55 pm 20:55 Clear 81 27 68 20 66 66 SSE 14 22 29.94 1014 10 16.09344 0 0
9:15 pm 21:15 Clear 79 26 68 20 70 70 SSE 9 15 29.94 1014 10 16.09344 0 0
9:35 pm 21:35 Clear 79 26 68 20 70 70 SSE 12 19 29.94 1014 10 16.09344 0 0
9:55 pm 21:55 Partly Cloudy 79 26 68 20 70 70 SE 7 11 29.94 1014 10 16.09344 0 0
10:15 pm 22:15 Partly Cloudy 77 25 68 20 74 74 SSE 8 13 29.94 1014 10 16.09344 0 0
10:35 pm 22:35 Partly Cloudy 77 25 68 20 74 74 SSE 9 15 29.94 1014 10 16.09344 0 0
10:55 pm 22:55 Partly Cloudy 77 25 70 21 79 79 SSE 8 13 29.97 1015 10 16.09344 0 0
11:15 pm 23:15 Mostly Cloudy 77 25 70 21 79 79 SSE 12 19 29.94 1014 10 16.09344 0 0
11:35 pm 23:35 Cloudy 77 25 68 20 74 74 SSE 12 19 29.94 1014 10 16.09344 0 0
11:55 pm 23:55 Cloudy 75 24 70 21 83 83 SSE 7 11 29.94 1014 10 16.09344 0 0

Powered by AerisWeather